Location: Newark
(58.8333°N, 23.5833°E)
Time: 14:55:30
(UTC+00:00)

A-11 Canister half - Pass Details

Date: 24 November 2019
Orbit: 1515 x 1685 km, 47.2° (Epoch: 04 December)

Event Time Altitude Azimuth Distance (km) Brightness Sun altitude
Rises 14:10:23 0° 199° (SSW) 4,857 12.7 -3.1°
Reaches altitude 10° 14:14:20 10° 186° (S) 3,897 11.8 -3.6°
Maximum altitude 14:21:30 23° 140° (SE) 3,027 10.5 -4.3°
Drops below altitude 10° 14:28:45 10° 94° (E) 3,953 10.7 -5.1°
Enters shadow 14:32:02 - 83° (E) 4,751 11.0 -5.5°
Sets 14:32:47 0° 81° (E) 4,945 - -5.5°
